Weather History for Deadhorse, AK

Change the Weather History Date:

Saturday, January 25, 2014

  Actual Average Record
Temperature  
Mean Temperature 0 °F -  
Max Temperature 1 °F -8 °F 100 °F (1998)
Min Temperature -2 °F -21 °F -55 °F (1989)
Degree Days  
Heating Degree Days 66    
Moisture  
Dew Point -4 °F    
Average Humidity 82    
Maximum Humidity 88    
Minimum Humidity 78    
Precipitation  
Precipitation 0.00 in - - ()
Sea Level Pressure  
Sea Level Pressure 30.20 in    
Wind  
Wind Speed 21 mph (East)    
Max Wind Speed 31 mph    
Max Gust Speed 36 mph    
Visibility 5 miles    
Events Snow    
Averages and records for this station are not official NWS values.
T = Trace of Precipitation, MM = Missing Value Source: NWS Daily Summary

Daily Weather History Graph

Daily Weather History Graph

Search for Another Location

Airport:

Trip Planner

Search our weather history database for the weather conditions in past years. The results will help you decide how hot, cold, wet, or windy it might be!

Date:

Astronomy

Jan. 25, 2014 Rise Set
Actual Time 11:23 AM AKST 2:50 PM AKST
Civil Twilight 9:39 AM AKST 4:33 PM AKST
Nautical Twilight 8:16 AM AKST 5:57 PM AKST
Astronomical Twilight 7:02 AM AKST 7:11 PM AKST
Moon 5:51 AM AKST (1/25) 10:06 AM AKST (1/25)
Length of Visible Light 6h 53m
Length of Day
3h 26m
Waning Crescent, 32% of the Moon is Illuminated
Jan 25
Waning Crescent
Jan 30
New
Feb 6
First Quarter
Feb 14
Full
Feb 22
Last Quarter

Hourly Weather History & Observations

Time (AKST) Temp. Windchill Dew Point Humidity Pressure Visibility Wind Dir Wind Speed Gust Speed Precip Events Conditions
12:53 AM -0.9 °F -23.5 °F -5.1 °F 83% 30.18 in 2.5 mi East 20.7 mph - 0.00 in Snow Light Snow
1:38 AM -0.4 °F -23.3 °F -5.8 °F 78% 30.18 in 1.5 mi East 21.9 mph - 0.00 in Snow Blowing Snow
1:53 AM -0.9 °F -24.5 °F -5.1 °F 83% 30.19 in 1.5 mi East 23.0 mph - 0.00 in Snow Blowing Snow
2:53 AM -0.0 °F -23.8 °F -4.0 °F 83% 30.19 in 2.0 mi East 24.2 mph - N/A Snow Blowing Snow
3:53 AM -0.0 °F -23.8 °F -4.0 °F 83% 30.21 in 3.0 mi East 24.2 mph - N/A Snow Blowing Snow
4:34 AM 1.4 °F -22.7 °F -4.0 °F 78% 30.19 in 1.8 mi East 26.5 mph - N/A Snow Blowing Snow
4:53 AM -0.0 °F -25.1 °F -4.0 °F 83% 30.20 in 1.0 mi East 27.6 mph - N/A Snow Blowing Snow
5:53 AM 1.0 °F -23.2 °F -2.9 °F 83% 30.20 in 1.2 mi East 26.5 mph 33.4 mph N/A Snow Blowing Snow
6:34 AM 1.4 °F -24.3 °F -2.2 °F 85% 30.20 in 0.8 mi East 31.1 mph - N/A Snow Blowing Snow
6:53 AM 1.0 °F -23.6 °F -2.0 °F 87% 30.20 in 0.8 mi East 27.6 mph 33.4 mph N/A Snow Blowing Snow
7:53 AM 1.0 °F -24.4 °F -2.9 °F 83% 30.20 in 0.8 mi East 29.9 mph 35.7 mph N/A Snow Blowing Snow
8:53 AM 1.0 °F -23.6 °F -4.0 °F 79% 30.20 in 1.0 mi East 27.6 mph - N/A Snow Blowing Snow
9:53 AM 1.0 °F -22.8 °F -2.9 °F 83% 30.21 in 1.2 mi East 25.3 mph 31.1 mph N/A Snow Blowing Snow
10:53 AM 1.0 °F -22.8 °F -2.9 °F 83% 30.19 in 1.5 mi East 25.3 mph - N/A Snow Blowing Snow
11:53 AM 1.9 °F -19.8 °F -2.0 °F 83% 30.21 in 3.0 mi East 20.7 mph - N/A Snow Blowing Snow
12:53 PM 1.9 °F -18.7 °F -2.0 °F 83% 30.21 in 7.0 mi East 18.4 mph - N/A Snow Blowing Snow
1:53 PM 1.9 °F -17.5 °F -0.9 °F 88% 30.20 in 10.0 mi East 16.1 mph - N/A Snow Blowing Snow
2:53 PM 1.9 °F -16.2 °F -2.0 °F 83% 30.21 in 10.0 mi East 13.8 mph - N/A Snow Blowing Snow
3:53 PM 1.9 °F -16.2 °F -2.0 °F 83% 30.20 in 10.0 mi East 13.8 mph - N/A   Mostly Cloudy
4:53 PM 1.0 °F -16.6 °F -2.9 °F 83% 30.19 in 10.0 mi East 12.7 mph - N/A   Mostly Cloudy
5:53 PM -0.0 °F -15.3 °F -5.1 °F 79% 30.20 in 7.0 mi East 9.2 mph - N/A   Scattered Clouds
6:53 PM -2.0 °F -18.7 °F -7.1 °F 79% 30.18 in 10.0 mi ENE 10.4 mph - N/A   Partly Cloudy
7:53 PM -2.0 °F -17.7 °F -6.0 °F 83% 30.19 in 10.0 mi East 9.2 mph - N/A   Clear
8:53 PM -0.9 °F -16.4 °F -6.0 °F 79% 30.19 in 10.0 mi ENE 9.2 mph - N/A   Clear
9:53 PM -2.0 °F -16.6 °F -7.1 °F 79% 30.19 in 10.0 mi ENE 8.1 mph - N/A   Partly Cloudy
10:53 PM -2.9 °F -16.5 °F -7.1 °F 82% 30.19 in 10.0 mi ENE 6.9 mph - N/A   Partly Cloudy
11:53 PM -2.9 °F -18.8 °F -8.0 °F 79% 30.18 in 10.0 mi ENE 9.2 mph - N/A   Partly Cloudy